Simultaneous Nadir Overpasses (SNOs) Predictions

Prediction of SNOs between AURA and LANDSAT-8 Satellite Orbit:

Table of predicted SNOs for the next 14.0 days since TLE Epoch: 8/9/2025
Index Date (AURA) Time (AURA) Lat,Lon (AURA) SZA (AURA ) Date (LANDSAT-8) Time (LANDSAT-8) Lat,Lon (LANDSAT-8) SZA (LANDSAT-8 ) Distance(km) Time Diff (sec)
1 08/20/2025 09:02:12 -73.20,-131.00 119.16 08/20/2025 09:01:07 -73.18,-133.80 119.22 90.22 65
2 08/20/2025 09:51:36 73.39, 36.28 61.04 08/20/2025 09:50:29 73.35, 34.19 60.96 66.68 67
3 08/20/2025 10:41:01 -73.72,-156.76 118.64 08/20/2025 10:39:50 -73.71,-157.42 118.66 20.60 71
4 08/20/2025 11:30:24 73.86, 10.60 61.51 08/20/2025 11:29:12 73.87, 10.60 61.53 1.86 72
5 08/20/2025 12:19:43 -73.87, 178.25 118.47 08/20/2025 12:18:40 -73.87, 178.22 118.48 1.08 63
6 08/20/2025 13:09:04 73.90, -14.16 61.58 08/20/2025 13:08:05 73.88, -14.11 61.55 3.20 59
7 08/20/2025 13:58:22 -73.86, 153.60 118.45 08/20/2025 13:57:33 -73.87, 153.50 118.45 3.03 49
8 08/20/2025 14:47:43 73.90, -38.81 61.60 08/20/2025 14:46:58 73.88, -38.82 61.58 1.76 45
9 08/20/2025 15:37:02 -73.91, 128.83 118.38 08/20/2025 15:36:25 -73.93, 128.91 118.37 2.94 37
10 08/20/2025 16:26:22 73.89, -63.46 61.61 08/20/2025 16:25:51 73.89, -63.54 61.61 2.42 31
11 08/20/2025 17:15:41 -73.90, 104.18 118.37 08/20/2025 17:15:18 -73.93, 104.20 118.34 2.97 23
12 08/20/2025 18:05:02 73.94, -88.23 61.68 08/20/2025 18:04:43 73.94, -88.13 61.69 2.98 19
13 08/20/2025 18:54:21 -73.95, 79.42 118.30 08/20/2025 18:54:11 -73.93, 79.49 118.31 2.66 10
14 08/20/2025 19:43:41 73.93,-112.88 61.70 08/20/2025 19:43:36 73.95,-112.84 61.71 1.87 5
15 08/20/2025 20:33:00 -73.94, 54.77 118.28 08/20/2025 20:33:04 -73.94, 54.77 118.29 0.61 4
16 08/20/2025 21:22:20 73.93,-137.53 61.72 08/20/2025 21:22:29 73.95,-137.55 61.74 2.79 9
17 08/20/2025 22:11:39 -73.94, 30.12 118.26 08/20/2025 22:11:57 -73.94, 30.06 118.26 1.86 18
18 08/20/2025 23:01:00 73.97,-162.29 61.79 08/20/2025 23:01:22 73.95,-162.27 61.77 2.20 22
19 08/20/2025 23:50:19 -73.98, 5.35 118.20 08/20/2025 23:50:49 -74.00, 5.47 118.18 3.82 30
20 08/21/2025 00:39:39 73.97, 173.06 61.80 08/21/2025 00:40:15 73.96, 173.02 61.80 1.46 36
21 08/21/2025 01:28:58 -73.98, -19.30 118.18 08/21/2025 01:29:42 -74.00, -19.24 118.15 3.09 44
22 08/21/2025 02:18:18 73.96, 148.41 61.82 08/21/2025 02:19:08 73.96, 148.31 61.82 3.02 50
23 08/21/2025 03:07:37 -73.97, -43.94 118.16 08/21/2025 03:08:35 -74.01, -43.96 118.12 3.76 58
24 08/21/2025 03:56:58 74.01, 123.64 61.89 08/21/2025 03:58:00 74.02, 123.72 61.90 2.59 62
25 08/21/2025 04:46:17 -74.02, -68.71 118.09 08/21/2025 04:47:28 -74.01, -68.67 118.10 1.64 71
26 08/21/2025 05:35:40 74.16, 98.63 62.06 08/21/2025 05:36:51 74.13, 99.24 62.04 18.85 71
27 08/21/2025 06:25:05 -74.47, -94.46 117.62 08/21/2025 06:26:12 -74.48, -92.29 117.59 64.33 67
28 08/21/2025 07:14:30 74.72, 72.61 62.63 08/21/2025 07:15:34 74.64, 75.76 62.60 92.99 64



Historial Predications of SNOs between AURA and LANDSAT-8
